Location: Unspecified
(50.1700°N, 6.8600°E)
Time: 19:14:39
(UTC+00:00)

PAYLOAD A - Pass Details

Date: 24 January 2019
Orbit: 691 x 833 km, 98.3° (Epoch: 20 February)

Event Time Altitude Azimuth Distance (km) Brightness Sun altitude
Rises 04:22:25 0° 14° (NNE) 3,137 7.4 -27.7°
Reaches altitude 10° 04:24:43 10° 15° (NNE) 2,196 6.5 -27.4°
Enters shadow 04:28:43 62° 20° (NNE) 790 4.0 -26.7°
